Regional Weather Roundup
Issued by NWS

Home | Current Version | Previous Version | Graphics & Text | Print | Product List | Glossary On
Versions: 1 2 3 4 5 6 7 8 9 10 11 12 13 14 15 16 17 18 19 20 21 22 23 24 25 26 27 28 29 30 31 32 33 34 35 36 37 38 39 40 41 42 43 44 45 46 47 48 49 50
000
ASUS43 KMPX 260001
RWRMN
WEATHER ROUNDUP FOR MINNESOTA
NATIONAL WEATHER SERVICE TWIN CITIES/CHANHASSEN MN
700 PM CDT THU AUG 25 2016


NOTE: "FAIR" INDICATES FEW OR NO CLOUDS BELOW 12,000 FEET WITH NO
SIGNIFICANT WEATHER AND/OR OBSTRUCTIONS TO VISIBILITY. N/A MEANS
CURRENT SKY AND/OR WEATHER CONDITIONS ARE NOT AVAILABLE.

MNZ060>063-068>070-260100-
   Twin Cities Metro

CITY           SKY/WX    TMP DP  RH WIND       PRES   REMARKS
TWIN CITIES    MOCLDY    69  53  56 NW14      30.07S
6HR MIN TEMP:  69; 6HR MAX TEMP:  74;

ST PAUL        MOCLDY    69  54  58 NW16      30.07S
CRYSTAL        PTCLDY    69  50  50 W13       30.06S
BLAINE         PTCLDY    70  54  56 W12       30.06F
LAKEVILLE      PTCLDY    66  57  72 W8        30.08R
EDEN PRAIRIE   MOSUNNY   70  53  54 NW9       30.07S
6HR MIN TEMP:  70; 6HR MAX TEMP:  75;

LAKEVILLE      PTCLDY    66  57  72 W8        30.08R
SOUTH ST PAUL  CLEAR     70  52  53 NW12      30.07S
LAKE ELMO      FAIR      68  54  60 NW10      30.08R
$$
MNZ001>005-007-008-013>017-022>024-027-028-260100-
   Northwest Minnesota

CITY           SKY/WX    TMP DP  RH WIND       PRES   REMARKS
BEMIDJI        PTSUNNY   62  50  66 NW12      30.05R
HALLOCK        SUNNY     70  48  46 NW6       30.01F
ROSEAU         MOSUNNY   68  54  60 W7        30.02S
WARROAD        SUNNY     66  54  63 NW6       30.02S
THIEF RVR FALL CLOUDY    66  49  54 NW9       30.05S
CROOKSTON      MOSUNNY   68  48  49 NW5       30.05S
FOSSTON        PTSUNNY   64  48  55 NW5       30.06S
DETROIT LAKES  MOSUNNY   63  52  67 NW8       30.09R
MOORHEAD       PTSUNNY   66  48  52 NW9       30.08S
PARK RAPIDS    SUNNY     65  51  60 NW9       30.06S
MAHNOMEN       CLOUDY    64  50  59 W7        30.07R
$$
MNZ006-009>011-018-025>026-260100-
   North Central Minnesota

CITY           SKY/WX    TMP DP  RH WIND       PRES   REMARKS
BAUDETTE       CLOUDY    61  50  67 NW6       30.01S
FLAG ISLAND    CLOUDY    64  50  59 N3        29.99S
INTL FALLS     CLOUDY    61  54  77 NW12      29.99R
6HR MIN TEMP:  60; 6HR MAX TEMP:  68; 6HR PCP:  0.06;

WASKISH        CLOUDY    61  54  77 W8        30.03R
BIG FORK       CLOUDY    61  54  77 CALM      30.03R
LONGVILLE      CLOUDY    63  54  72 W5        30.04S
GRAND RAPIDS   CLOUDY    61  55  81 W9        30.05S
CRANE LAKE     CLOUDY    59  57  94 N8        29.98R
ORR            LGT RAIN  61  55  82 NW7       29.97R
COOK           CLOUDY    59  55  88 W5        30.00S
WALKER         CLOUDY    61  52  71 W6        30.05S
$$
MNZ012-019>021-037-260100-
   Northeast Minnesota

CITY           SKY/WX    TMP DP  RH WIND       PRES   REMARKS
DULUTH         MOCLDY    64  56  75 W17G23    30.01R
6HR MIN TEMP:  64; 6HR MAX TEMP:  70;

ELY            MOCLDY    61  57  88 W10       29.97R
HIBBING        MOCLDY    61  54  77 W8        30.01R
EVELETH        PTCLDY    63  53  69 W9G21     30.00S
DULUTH HARBOR  CLOUDY    68  57  68 SW14      30.00S
TWO HARBORS    CLOUDY    68  57  68 W9        29.96S
SILVER BAY     CLOUDY    66  57  72 CALM      29.95S
G MARAIS ARPRT MOCLDY    63  52  67 W7        29.95R
$$
MNZ029>031-032-039>041-046>048-054>057-064-260100-
   West Central Minnesota

CITY           SKY/WX    TMP DP  RH WIND       PRES   REMARKS
FERGUS FALLS   CLOUDY    64  54  68 W5        30.10S
WHEATON        CLOUDY    64  57  77 W5        30.12S
MORRIS         CLOUDY    63  57  82 N8        30.10S
ALEXANDRIA     CLOUDY    63  54  72 W9        30.11S
ELBOW LAKE     CLOUDY    62  56  81 SW6       30.11S
WADENA         CLOUDY    61  54  77 W5        30.08R
GLENWOOD       PTSUNNY   63  55  77 NW12      30.11S
APPLETON       SUNNY     66  52  59 NW9       30.10S
BENSON         MOSUNNY   64  52  63 NW10      30.11S
ORTONVILLE     CLOUDY    64  52  63 NW7       30.11F
MADISON        SUNNY     66  52  59 NW8       30.11F
WILLMAR        FAIR      66  54  63 NW7       30.11F
$$
MNZ033>034-036-042>043-049>051-058-059-260100-
   Central Minnesota

CITY           SKY/WX    TMP DP  RH WIND       PRES   REMARKS
ST CLOUD       MOSUNNY   65  55  70 W8        30.07S
6HR MIN TEMP:  65; 6HR MAX TEMP:  71;

SAUK CENTRE    CLOUDY    62  55  77 W10       30.10R
PAYNESVILLE    PTSUNNY   64  53  67 W7        30.09F
AITKIN         PTSUNNY   66  50  55 NW5       30.03S
PINE RIVER     PTSUNNY   63  54  72 W3        30.09R
BRAINERD       CLOUDY    64  55  72 VRB5      30.06S
STAPLES        CLOUDY    63  54  72 W8        30.08R
LONG PRAIRIE   CLOUDY    61  55  82 SW3       30.10S
LITTLE FALLS   CLOUDY    61  55  82 W7        30.09R
LITCHFIELD     SUNNY     68  54  60 W10G17    30.10S
BUFFALO        SUNNY     67  52  58 W12       30.09S
MAPLE LAKE     SUNNY     68  56  66 W5        30.09S
HUTCHINSON     SUNNY     67  55  64 W8        30.11S
$$
MNZ037-044-045-052-053-260100-
   East Central Minnesota

CITY           SKY/WX    TMP DP  RH WIND       PRES   REMARKS
PRINCETON      SUNNY     68  55  64 W6        30.07S
MORA           CLOUDY    64  54  68 W5        30.07S
CAMBRIDGE      CLEAR     70  54  56 W9G16     30.05S
RUSH CITY      CLEAR     65  54  66 W5        30.06S
MOOSE LAKE     CLOUDY    63  54  72 SW6       30.02R
HINCKLEY       CLOUDY    64  55  72 W7        30.05S
CLOQUET        MOCLDY    64  54  68 W10G16    30.02S
MCGREGOR       CLOUDY    64  52  63 W9G16     30.04S
$$
MNZ071>073-080-081-089-090-097-098-260100-
   Southwest Minnesota

CITY           SKY/WX    TMP DP  RH WIND       PRES   REMARKS
MONTEVIDEO     SUNNY     66  54  63 NW9       30.12F
GRANITE FALLS  SUNNY     68  55  63 NW9       30.13S
CANBY          MOSUNNY   68  53  59 NW9       30.13S
MARSHALL       MOSUNNY   67  55  65 N8        30.11F
REDWOOD FALLS  MOSUNNY   69  54  58 N9        30.10S
OLIVIA         MOSUNNY   68  54  60 NW9       30.10F
PIPESTONE      SUNNY     70  52  52 NW7       30.13F
WINDOM         MOSUNNY   70  55  60 NW8       30.12S
WORTHINGTON    MOSUNNY   69  56  62 NW9       30.13F
JACKSON        SUNNY     70  54  56 NW7       30.12F
TRACY          PTSUNNY   69  56  63 NW9       30.12S
$$
MNZ065>067-074>077-082>085-091>093-260100-
   South Central Minnesota

CITY           SKY/WX    TMP DP  RH WIND       PRES   REMARKS
MANKATO        MOSUNNY   70  55  60 NW9       30.09S
NEW ULM          N/A     70  55  60 NW9       30.10S
ST JAMES       SUNNY     66  54  63 W6        30.11S
FAIRMONT       SUNNY     72  58  61 NW10      30.10F
GLENCOE        MOSUNNY   68  58  70 NW8       30.09S
FARIBAULT      PTCLDY    70  57  64 W6        30.09S
OWATONNA       CLEAR     70  57  64 W5        30.09S
WASECA         PTSUNNY   68  59  73 W6        30.10F
ALBERT LEA     CLEAR     72  59  64 NW3       30.09F
$$
MNZ078>079-086>088-094>096-260100-
   Southeast Minnesota

CITY           SKY/WX    TMP DP  RH WIND       PRES   REMARKS
ROCHESTER      CLEAR     70  58  65 W8        30.09S
6HR MIN TEMP:  70; 6HR MAX TEMP:  77;

RED WING       PTCLDY    72  54  53 NW7       30.05S
STANTON        PTCLDY    72  55  56 W10       30.07S
DODGE CENTER   CLEAR     70  55  60 NW8       30.09S
WINONA         CLEAR     73  55  53 W6        30.05S
AUSTIN         CLEAR     70  55  60 W10       30.09S
PRESTON        CLEAR     70  57  63 W8        30.09S
$$
ABBREVIATIONS USED IN REMARKS
   TC - TEMPERATURES IN CELSIUS
  WCI - WIND CHILL INDEX
   HX - HEAT INDEX
  VSB - VISIBILITY
$$




USA.gov is the U.S. government's official web portal to all federal, state and local government web resources and services.